Location: Unspecified
(0.0000°N, 0.0000°E)
Time: 08:44:15
(UTC+00:00)

Tiros 1 - Visible Passes

Search period start: 25 October 2014 00:00
Search period end: 04 November 2014 00:00
Orbit: 633 x 667 km, 48.4° (Epoch: 24 October)

Date Brightness Start Highest point End Pass type
(mag) Time Alt. Az. Time Alt. Az. Time Alt. Az.
25 Oct 7.7 18:57:11 10° SW 19:01:45 54° NW 19:04:27 23° NNE visible
26 Oct 9.6 19:25:52 10° W 19:28:45 16° NW 19:31:13 11° NNW visible
27 Oct 7.7 18:09:01 10° SW 18:13:38 59° NW 18:18:12 10° NNE visible
28 Oct 9.5 04:41:25 10° N 04:44:51 20° NE 04:48:18 10° E visible
28 Oct 9.6 18:37:31 10° W 18:40:37 18° NW 18:43:42 10° N visible
29 Oct 7.5 05:07:09 10° NNW 05:11:50 67° NE 05:16:34 10° SE visible
30 Oct 9.4 03:54:35 14° NNE 03:56:43 18° NE 03:59:58 10° E visible
31 Oct 7.5 04:21:19 28° NNW 04:23:42 61° NE 04:28:24 10° SE visible
01 Nov 9.9 03:10:13 14° ENE 03:10:13 14° ENE 03:11:36 10° E visible
01 Nov 7.8 04:47:59 20° WNW 04:50:39 37° SW 04:55:04 10° SSE visible
02 Nov 8.3 03:36:49 42° ESE 03:36:49 42° ESE 03:40:12 10° SE visible
02 Nov 9.2 05:16:07 10° WSW 05:17:44 12° SW 05:19:21 10° SSW visible
03 Nov 8.0 04:03:20 37° SSW 04:03:20 37° SSW 04:06:58 10° SSE visible
